TVS4428 SBFZ-GVAC

Flight info

Callsign TVS4428
Flight time 3h 23m
Altitude 35000
Route TOGAB UZ18 ARTIG UN866 AMDOL DCT RANUR GAGUS1F
Aircraft B738/M-SDE2E3FGHIRWXY/LB1

Departure

Time 2026-04-21 14:54
Airport Pinto Martins International Airport (SBFZ)

Arrival

Time 2026-04-21 18:18
Airport Amílcar Cabral International Airport (GVAC)
Time Latitude Longitude Altitude Speed Heading
2026-04-21 14:37 -3.77809 -38.53482 0 ft 0 kts 195°
2026-04-21 14:45 -3.77798 -38.53479 90 ft 4 kts 197°
2026-04-21 14:45 -3.77773 -38.53470 90 ft 4 kts 207°
2026-04-21 14:45 -3.77751 -38.53455 89 ft 4 kts 226°
2026-04-21 14:46 -3.77739 -38.53435 89 ft 4 kts 277°
2026-04-21 14:46 -3.77740 -38.53426 90 ft 0 kts 284°
2026-04-21 14:48 -3.77740 -38.53429 88 ft 2 kts 284°
2026-04-21 14:48 -3.77733 -38.53455 92 ft 6 kts 284°
2026-04-21 14:48 -3.77719 -38.53507 90 ft 10 kts 284°
2026-04-21 14:49 -3.77700 -38.53579 90 ft 11 kts 285°
2026-04-21 14:49 -3.77680 -38.53650 91 ft 11 kts 285°
2026-04-21 14:49 -3.77661 -38.53720 91 ft 10 kts 285°
2026-04-21 14:49 -3.77643 -38.53788 90 ft 10 kts 284°
2026-04-21 14:50 -3.77632 -38.53832 91 ft 10 kts 285°
2026-04-21 14:50 -3.77609 -38.53918 93 ft 9 kts 285°
2026-04-21 14:50 -3.77598 -38.53960 92 ft 9 kts 285°
2026-04-21 14:50 -3.77581 -38.54022 91 ft 9 kts 285°
2026-04-21 14:51 -3.77563 -38.54088 91 ft 11 kts 284°
2026-04-21 14:51 -3.77543 -38.54164 92 ft 12 kts 285°
2026-04-21 14:51 -3.77521 -38.54247 91 ft 13 kts 285°
2026-04-21 14:51 -3.77498 -38.54334 90 ft 13 kts 285°
2026-04-21 14:52 -3.77434 -38.54375 93 ft 12 kts 14°
2026-04-21 14:52 -3.77358 -38.54341 94 ft 12 kts 54°
2026-04-21 14:52 -3.77357 -38.54293 93 ft 0 kts 104°
2026-04-21 14:53 -3.77357 -38.54291 93 ft 2 kts 104°
2026-04-21 14:53 -3.77372 -38.54234 93 ft 27 kts 105°
2026-04-21 14:53 -3.77488 -38.53799 92 ft 101 kts 105°
2026-04-21 14:54 -3.77726 -38.52906 95 ft 162 kts 105°
2026-04-21 14:54 -3.78056 -38.51690 476 ft 186 kts 107°
2026-04-21 14:54 -3.78401 -38.50467 1463 ft 181 kts 105°
2026-04-21 14:54 -3.78724 -38.49251 2203 ft 184 kts 101°
2026-04-21 14:55 -3.78481 -38.47995 2780 ft 192 kts 56°
2026-04-21 14:55 -3.77643 -38.46896 3222 ft 210 kts 55°
2026-04-21 14:55 -3.76725 -38.45665 3403 ft 231 kts 55°
2026-04-21 14:55 -3.75734 -38.44330 3739 ft 244 kts 55°
2026-04-21 14:56 -3.74687 -38.42916 3988 ft 263 kts 55°
2026-04-21 14:56 -3.73583 -38.41422 4589 ft 270 kts 56°
2026-04-21 14:56 -3.72469 -38.39910 5356 ft 270 kts 56°
2026-04-21 14:56 -3.71352 -38.38389 6135 ft 272 kts 56°
2026-04-21 14:57 -3.70226 -38.36853 6831 ft 276 kts 56°
2026-04-21 14:57 -3.69091 -38.35297 7515 ft 278 kts 56°
2026-04-21 14:57 -3.67941 -38.33720 8139 ft 282 kts 56°
2026-04-21 14:57 -3.66774 -38.32120 8802 ft 286 kts 56°
2026-04-21 14:58 -3.65595 -38.30502 9507 ft 289 kts 56°
2026-04-21 14:58 -3.64405 -38.28869 10150 ft 293 kts 56°
2026-04-21 14:58 -3.63173 -38.27175 10425 ft 311 kts 56°
2026-04-21 14:58 -3.61859 -38.25365 10581 ft 331 kts 56°
2026-04-21 14:59 -3.60464 -38.23445 10726 ft 351 kts 56°
2026-04-21 14:59 -3.58990 -38.21418 10854 ft 368 kts 56°
2026-04-21 14:59 -3.57456 -38.19312 11126 ft 379 kts 56°
2026-04-21 14:59 -3.55894 -38.17168 11613 ft 383 kts 56°
2026-04-21 15:00 -3.54324 -38.15012 12190 ft 384 kts 56°
2026-04-21 15:00 -3.52766 -38.12875 12734 ft 386 kts 56°
2026-04-21 15:00 -3.51159 -38.10667 13253 ft 389 kts 56°
2026-04-21 15:00 -3.49556 -38.08465 13763 ft 392 kts 56°
2026-04-21 15:01 -3.47969 -38.06286 14164 ft 395 kts 56°
2026-04-21 15:01 -3.46349 -38.04060 14594 ft 397 kts 55°
2026-04-21 15:01 -3.44718 -38.01820 15010 ft 400 kts 55°
2026-04-21 15:01 -3.43072 -37.99561 15422 ft 402 kts 55°
2026-04-21 15:02 -3.41417 -37.97290 15824 ft 405 kts 55°
2026-04-21 15:02 -3.39754 -37.95003 16228 ft 408 kts 55°
2026-04-21 15:02 -3.38084 -37.92703 16593 ft 410 kts 55°
2026-04-21 15:02 -3.36393 -37.90384 16931 ft 414 kts 55°
2026-04-21 15:03 -3.34697 -37.88060 17292 ft 415 kts 54°
2026-04-21 15:03 -3.32984 -37.85714 17634 ft 419 kts 55°
2026-04-21 15:03 -3.31263 -37.83345 17878 ft 425 kts 55°
2026-04-21 15:03 -3.29507 -37.80929 17934 ft 434 kts 55°
2026-04-21 15:04 -3.27711 -37.78461 18044 ft 441 kts 54°
2026-04-21 15:04 -3.25902 -37.75971 18278 ft 443 kts 55°
2026-04-21 15:04 -3.24153 -37.73423 18547 ft 444 kts 57°
2026-04-21 15:04 -3.22455 -37.70836 18829 ft 445 kts 58°
2026-04-21 15:05 -3.20794 -37.68265 19069 ft 446 kts 58°
2026-04-21 15:05 -3.17405 -37.63022 19523 ft 450 kts 58°
2026-04-21 15:05 -3.15691 -37.60388 19750 ft 452 kts 58°
2026-04-21 15:06 -3.13968 -37.57754 19970 ft 453 kts 57°
2026-04-21 15:06 -3.12235 -37.55112 20198 ft 455 kts 57°
2026-04-21 15:06 -3.10484 -37.52450 20415 ft 456 kts 57°
2026-04-21 15:06 -3.08755 -37.49824 20628 ft 457 kts 57°
2026-04-21 15:07 -3.07002 -37.47164 20829 ft 459 kts 57°
2026-04-21 15:07 -3.05242 -37.44492 21021 ft 461 kts 57°
2026-04-21 15:07 -3.03479 -37.41813 21220 ft 462 kts 57°
2026-04-21 15:07 -3.01709 -37.39124 21431 ft 463 kts 57°
2026-04-21 15:08 -2.99933 -37.36426 21613 ft 465 kts 57°
2026-04-21 15:08 -2.98152 -37.33720 21791 ft 466 kts 57°
2026-04-21 15:08 -2.96384 -37.31034 21963 ft 467 kts 57°
2026-04-21 15:08 -2.94594 -37.28313 22137 ft 468 kts 57°
2026-04-21 15:09 -2.92800 -37.25586 22305 ft 470 kts 57°
2026-04-21 15:09 -2.90996 -37.22845 22480 ft 471 kts 57°
2026-04-21 15:09 -2.89194 -37.20110 22643 ft 472 kts 57°
2026-04-21 15:09 -2.87375 -37.17349 22798 ft 473 kts 57°
2026-04-21 15:10 -2.85585 -37.14631 22942 ft 474 kts 57°
2026-04-21 15:10 -2.83768 -37.11873 23086 ft 476 kts 57°
2026-04-21 15:10 -2.81942 -37.09100 23231 ft 477 kts 57°
2026-04-21 15:10 -2.80117 -37.06329 23374 ft 478 kts 57°
2026-04-21 15:11 -2.78288 -37.03552 23501 ft 478 kts 57°
2026-04-21 15:11 -2.76452 -37.00765 23604 ft 480 kts 57°
2026-04-21 15:11 -2.74613 -36.97974 23718 ft 481 kts 57°
2026-04-21 15:11 -2.72767 -36.95173 23834 ft 481 kts 57°
2026-04-21 15:12 -2.70923 -36.92374 23942 ft 482 kts 57°
2026-04-21 15:12 -2.69100 -36.89608 24047 ft 483 kts 57°
2026-04-21 15:12 -2.67249 -36.86799 24156 ft 483 kts 57°
2026-04-21 15:12 -2.65398 -36.83990 24261 ft 484 kts 57°
2026-04-21 15:13 -2.63544 -36.81177 24367 ft 485 kts 57°
2026-04-21 15:13 -2.61686 -36.78359 24464 ft 485 kts 57°
2026-04-21 15:13 -2.59822 -36.75531 24559 ft 486 kts 57°
2026-04-21 15:13 -2.57955 -36.72698 24659 ft 487 kts 57°
2026-04-21 15:14 -2.56089 -36.69868 24763 ft 487 kts 57°
2026-04-21 15:14 -2.54220 -36.67034 24858 ft 488 kts 57°
2026-04-21 15:14 -2.52370 -36.64227 24932 ft 489 kts 57°
2026-04-21 15:14 -2.50496 -36.61386 25022 ft 490 kts 57°
2026-04-21 15:15 -2.48619 -36.58539 25121 ft 490 kts 57°
2026-04-21 15:15 -2.46742 -36.55694 25227 ft 490 kts 57°
2026-04-21 15:15 -2.44863 -36.52844 25374 ft 489 kts 57°
2026-04-21 15:15 -2.42980 -36.49988 25594 ft 487 kts 57°
2026-04-21 15:16 -2.41138 -36.47196 25816 ft 485 kts 57°
2026-04-21 15:16 -2.39286 -36.44389 26023 ft 483 kts 57°
2026-04-21 15:16 -2.37425 -36.41569 26178 ft 483 kts 57°
2026-04-21 15:16 -2.35575 -36.38763 26320 ft 484 kts 57°
2026-04-21 15:17 -2.33742 -36.35985 26462 ft 484 kts 57°
2026-04-21 15:17 -2.31879 -36.33160 26561 ft 485 kts 57°
2026-04-21 15:17 -2.30014 -36.30334 26630 ft 487 kts 57°
2026-04-21 15:17 -2.28147 -36.27503 26745 ft 488 kts 57°
2026-04-21 15:18 -2.26278 -36.24670 26925 ft 487 kts 57°
2026-04-21 15:18 -2.24410 -36.21840 27131 ft 486 kts 57°
2026-04-21 15:18 -2.22552 -36.19023 27319 ft 485 kts 57°
2026-04-21 15:18 -2.20692 -36.16204 27447 ft 486 kts 57°
2026-04-21 15:19 -2.18849 -36.13414 27594 ft 486 kts 57°
2026-04-21 15:19 -2.16991 -36.10600 27783 ft 485 kts 57°
2026-04-21 15:19 -2.15130 -36.07780 27983 ft 484 kts 57°
2026-04-21 15:19 -2.13274 -36.04966 28170 ft 484 kts 58°
2026-04-21 15:20 -2.11416 -36.02152 28371 ft 483 kts 58°
2026-04-21 15:20 -2.09560 -35.99341 28578 ft 483 kts 58°
2026-04-21 15:20 -2.07732 -35.96572 28770 ft 482 kts 58°
2026-04-21 15:20 -2.05881 -35.93768 28958 ft 482 kts 58°
2026-04-21 15:21 -2.04032 -35.90969 29157 ft 482 kts 57°
2026-04-21 15:21 -2.02189 -35.88178 29364 ft 481 kts 57°
2026-04-21 15:21 -2.00343 -35.85382 29583 ft 480 kts 57°
2026-04-21 15:21 -1.98497 -35.82586 29808 ft 480 kts 58°
2026-04-21 15:22 -1.96655 -35.79798 30028 ft 479 kts 58°
2026-04-21 15:22 -1.94822 -35.77022 30213 ft 479 kts 57°
2026-04-21 15:22 -1.93006 -35.74271 30388 ft 478 kts 57°
2026-04-21 15:22 -1.91171 -35.71493 30590 ft 477 kts 57°
2026-04-21 15:23 -1.89342 -35.68725 30768 ft 477 kts 57°
2026-04-21 15:23 -1.87515 -35.65959 30959 ft 476 kts 57°
2026-04-21 15:23 -1.85690 -35.63195 31163 ft 475 kts 57°
2026-04-21 15:23 -1.83869 -35.60438 31369 ft 474 kts 57°
2026-04-21 15:24 -1.82070 -35.57715 31569 ft 474 kts 57°
2026-04-21 15:24 -1.80253 -35.54963 31750 ft 473 kts 57°
2026-04-21 15:24 -1.78440 -35.52217 31947 ft 473 kts 57°
2026-04-21 15:24 -1.76602 -35.49484 32157 ft 473 kts 54°
2026-04-21 15:25 -1.74449 -35.47003 32329 ft 473 kts 45°
2026-04-21 15:25 -1.71956 -35.44843 32484 ft 475 kts 38°
2026-04-21 15:25 -1.69193 -35.43088 32630 ft 476 kts 30°
2026-04-21 15:25 -1.66283 -35.41504 32830 ft 476 kts 30°
2026-04-21 15:26 -1.63353 -35.39940 33027 ft 476 kts 29°
2026-04-21 15:26 -1.60433 -35.38380 33277 ft 475 kts 29°
2026-04-21 15:26 -1.57524 -35.36816 33516 ft 474 kts 30°
2026-04-21 15:26 -1.54628 -35.35258 33743 ft 473 kts 30°
2026-04-21 15:27 -1.51739 -35.33691 33930 ft 471 kts 30°
2026-04-21 15:27 -1.48900 -35.32123 34066 ft 471 kts 30°
2026-04-21 15:27 -1.43130 -35.29010 34255 ft 471 kts 30°
2026-04-21 15:28 -1.40252 -35.27436 34472 ft 471 kts 29°
2026-04-21 15:28 -1.37391 -35.25873 34761 ft 467 kts 30°
2026-04-21 15:28 -1.34555 -35.24295 34922 ft 467 kts 30°
2026-04-21 15:28 -1.31694 -35.22699 34928 ft 469 kts 30°
2026-04-21 15:29 -1.25968 -35.19524 34947 ft 472 kts 30°
2026-04-21 15:29 -1.20225 -35.16362 34946 ft 475 kts 30°
2026-04-21 15:30 -1.14403 -35.13168 34942 ft 478 kts 30°
2026-04-21 15:30 -1.08557 -35.09963 34938 ft 479 kts 30°
2026-04-21 15:31 -1.02715 -35.06762 34933 ft 479 kts 29°
2026-04-21 15:31 -0.96912 -35.03559 34941 ft 479 kts 30°
2026-04-21 15:32 -0.91061 -35.00348 34938 ft 480 kts 29°
2026-04-21 15:32 -0.85197 -34.97137 34939 ft 480 kts 29°
2026-04-21 15:33 -0.79346 -34.93933 34939 ft 480 kts 29°
2026-04-21 15:33 -0.73490 -34.90721 34946 ft 480 kts 29°
2026-04-21 15:34 -0.67629 -34.87506 34936 ft 480 kts 30°
2026-04-21 15:34 -0.61769 -34.84290 34938 ft 480 kts 30°
2026-04-21 15:35 -0.55906 -34.81073 34936 ft 480 kts 30°
2026-04-21 15:35 -0.50084 -34.77880 34937 ft 480 kts 30°
2026-04-21 15:36 -0.44218 -34.74663 34937 ft 480 kts 30°
2026-04-21 15:36 -0.38354 -34.71443 34934 ft 480 kts 30°
2026-04-21 15:37 -0.32490 -34.68226 34943 ft 481 kts 30°
2026-04-21 15:37 -0.26617 -34.65006 34938 ft 481 kts 30°
2026-04-21 15:38 -0.20774 -34.61801 34939 ft 482 kts 30°
2026-04-21 15:38 -0.15873 -34.59114 34936 ft 482 kts 30°
2026-04-21 15:39 -0.09988 -34.55883 34940 ft 483 kts 30°
2026-04-21 15:39 -0.03132 -34.52127 34933 ft 483 kts 30°
2026-04-21 15:40 0.01810 -34.49417 34943 ft 485 kts 30°
2026-04-21 15:40 0.07710 -34.46187 34934 ft 485 kts 31°
2026-04-21 15:41 0.13597 -34.42912 34939 ft 484 kts 30°
2026-04-21 15:41 0.19513 -34.39690 34935 ft 484 kts 30°
2026-04-21 15:42 0.25430 -34.36453 34934 ft 484 kts 30°
2026-04-21 15:42 0.31295 -34.33235 34935 ft 484 kts 30°
2026-04-21 15:43 0.37202 -34.29994 34933 ft 483 kts 30°
2026-04-21 15:43 0.43098 -34.26761 34931 ft 483 kts 30°
2026-04-21 15:44 0.48982 -34.23536 34931 ft 482 kts 30°
2026-04-21 15:44 0.54859 -34.20312 34933 ft 481 kts 30°
2026-04-21 15:45 0.60683 -34.17115 34933 ft 480 kts 31°
2026-04-21 15:45 0.66554 -34.13898 34936 ft 480 kts 31°
2026-04-21 15:46 0.72412 -34.10679 34917 ft 480 kts 31°
2026-04-21 15:46 0.78220 -34.07504 34939 ft 479 kts 30°
2026-04-21 15:47 0.84074 -34.04270 34940 ft 483 kts 31°
2026-04-21 15:47 0.90045 -34.01056 34916 ft 487 kts 30°
2026-04-21 15:48 0.95985 -33.97789 34926 ft 488 kts 31°
2026-04-21 15:48 1.01903 -33.94505 34933 ft 490 kts 31°
2026-04-21 15:49 1.07889 -33.91205 34935 ft 491 kts 31°
2026-04-21 15:49 1.13888 -33.87912 34938 ft 492 kts 31°
2026-04-21 15:50 1.19858 -33.84636 34939 ft 491 kts 31°
2026-04-21 15:50 1.25855 -33.81342 34935 ft 490 kts 31°
2026-04-21 15:51 1.31846 -33.78052 34937 ft 490 kts 31°
2026-04-21 15:51 1.37789 -33.74788 34936 ft 489 kts 31°
2026-04-21 15:52 1.43764 -33.71506 34933 ft 489 kts 31°
2026-04-21 15:52 1.49721 -33.68232 34937 ft 488 kts 31°
2026-04-21 15:53 1.55670 -33.64964 34939 ft 487 kts 31°
2026-04-21 15:53 1.61584 -33.61714 34936 ft 487 kts 31°
2026-04-21 15:54 1.67520 -33.58453 34935 ft 487 kts 31°
2026-04-21 15:54 1.73461 -33.55187 34940 ft 487 kts 31°
2026-04-21 15:55 1.79407 -33.51921 34938 ft 487 kts 31°
2026-04-21 15:55 1.85332 -33.48664 34936 ft 488 kts 31°
2026-04-21 15:56 1.91293 -33.45387 34939 ft 488 kts 31°
2026-04-21 15:56 1.97261 -33.42106 34936 ft 489 kts 31°
2026-04-21 15:57 2.03240 -33.38818 34937 ft 490 kts 31°
2026-04-21 15:57 2.09184 -33.35548 34934 ft 491 kts 31°
2026-04-21 15:58 2.15185 -33.32247 34934 ft 492 kts 31°
2026-04-21 15:58 2.21192 -33.28944 34932 ft 492 kts 31°
2026-04-21 15:59 2.27157 -33.25661 34935 ft 492 kts 31°
2026-04-21 15:59 2.33164 -33.22352 34935 ft 492 kts 31°
2026-04-21 16:00 2.39192 -33.19059 34929 ft 492 kts 31°
2026-04-21 16:00 2.45212 -33.15742 34932 ft 491 kts 31°
2026-04-21 16:01 2.51166 -33.12455 34921 ft 492 kts 31°
2026-04-21 16:01 2.57149 -33.09157 34930 ft 490 kts 31°
2026-04-21 16:02 2.63123 -33.05851 34930 ft 488 kts 31°
2026-04-21 16:02 2.69092 -33.02570 34937 ft 488 kts 31°
2026-04-21 16:03 2.75014 -32.99318 34930 ft 488 kts 31°
2026-04-21 16:03 2.80970 -32.96042 34929 ft 488 kts 31°
2026-04-21 16:04 2.86924 -32.92764 34926 ft 488 kts 31°
2026-04-21 16:04 2.92838 -32.89506 34925 ft 488 kts 31°
2026-04-21 16:05 2.98790 -32.86227 34926 ft 488 kts 31°
2026-04-21 16:05 3.04742 -32.82949 34926 ft 487 kts 31°
2026-04-21 16:06 3.10681 -32.79675 34925 ft 487 kts 31°
2026-04-21 16:06 3.16577 -32.76425 34932 ft 487 kts 31°
2026-04-21 16:07 3.22514 -32.73153 34929 ft 487 kts 31°
2026-04-21 16:07 3.28464 -32.69872 34927 ft 488 kts 31°
2026-04-21 16:08 3.37402 -32.64944 34934 ft 489 kts 31°
2026-04-21 16:09 3.43339 -32.61670 34931 ft 489 kts 31°
2026-04-21 16:09 3.49310 -32.58382 34933 ft 490 kts 31°
2026-04-21 16:10 3.55292 -32.55089 34928 ft 490 kts 31°
2026-04-21 16:10 3.61278 -32.51791 34927 ft 490 kts 31°
2026-04-21 16:11 3.67210 -32.48524 34930 ft 490 kts 31°
2026-04-21 16:11 3.73182 -32.45234 34927 ft 490 kts 31°
2026-04-21 16:12 3.78180 -32.42479 34932 ft 489 kts 31°
2026-04-21 16:12 3.85115 -32.38657 34928 ft 489 kts 31°
2026-04-21 16:13 3.91075 -32.35371 34929 ft 489 kts 31°
2026-04-21 16:13 3.97036 -32.32083 34932 ft 489 kts 31°
2026-04-21 16:14 4.02998 -32.28795 34927 ft 489 kts 31°
2026-04-21 16:14 4.08962 -32.25506 34929 ft 489 kts 31°
2026-04-21 16:15 4.14924 -32.22217 34932 ft 489 kts 31°
2026-04-21 16:15 4.20886 -32.18927 34925 ft 489 kts 31°
2026-04-21 16:16 4.26813 -32.15655 34931 ft 489 kts 31°
2026-04-21 16:16 4.32777 -32.12364 34927 ft 489 kts 31°
2026-04-21 16:17 4.38740 -32.09071 34930 ft 489 kts 31°
2026-04-21 16:17 4.44702 -32.05779 34927 ft 489 kts 31°
2026-04-21 16:18 4.50623 -32.02510 34927 ft 489 kts 31°
2026-04-21 16:18 4.56583 -31.99218 34927 ft 489 kts 31°
2026-04-21 16:19 4.62552 -31.95920 34930 ft 489 kts 31°
2026-04-21 16:19 4.68522 -31.92620 34930 ft 489 kts 31°
2026-04-21 16:20 4.74455 -31.89340 34925 ft 489 kts 31°
2026-04-21 16:20 4.80431 -31.86038 34926 ft 489 kts 31°
2026-04-21 16:21 4.86392 -31.82741 34923 ft 489 kts 31°
2026-04-21 16:21 4.92360 -31.79440 34920 ft 490 kts 31°
2026-04-21 16:22 4.97333 -31.76687 34925 ft 490 kts 31°
2026-04-21 16:22 5.04280 -31.72845 34922 ft 490 kts 31°
2026-04-21 16:23 5.10262 -31.69535 34919 ft 490 kts 31°
2026-04-21 16:23 5.16246 -31.66222 34924 ft 491 kts 31°
2026-04-21 16:24 5.22225 -31.62910 34924 ft 491 kts 31°
2026-04-21 16:24 5.28158 -31.59591 34927 ft 491 kts 31°
2026-04-21 16:25 5.34098 -31.56245 34923 ft 491 kts 31°
2026-04-21 16:25 5.40070 -31.52881 34918 ft 491 kts 31°
2026-04-21 16:26 5.46034 -31.49527 34921 ft 491 kts 31°
2026-04-21 16:26 5.51975 -31.46188 34930 ft 491 kts 31°
2026-04-21 16:27 5.57940 -31.42830 34920 ft 492 kts 31°
2026-04-21 16:27 5.62947 -31.40013 34923 ft 492 kts 31°
2026-04-21 16:28 5.68924 -31.36649 34920 ft 492 kts 31°
2026-04-21 16:28 5.74854 -31.33312 34930 ft 492 kts 31°
2026-04-21 16:29 5.80829 -31.29947 34926 ft 492 kts 31°
2026-04-21 16:29 5.86777 -31.26597 34924 ft 492 kts 31°
2026-04-21 16:30 5.92762 -31.23225 34923 ft 492 kts 31°
2026-04-21 16:30 5.98749 -31.19852 34922 ft 492 kts 31°
2026-04-21 16:31 6.04680 -31.16509 34919 ft 492 kts 31°
2026-04-21 16:31 6.10650 -31.13143 34919 ft 492 kts 31°
2026-04-21 16:32 6.16621 -31.09775 34920 ft 491 kts 31°
2026-04-21 16:32 6.22592 -31.06408 34920 ft 492 kts 31°
2026-04-21 16:33 6.28570 -31.03036 34923 ft 491 kts 31°
2026-04-21 16:33 6.34502 -30.99689 34922 ft 491 kts 31°
2026-04-21 16:34 6.40475 -30.96317 34928 ft 491 kts 31°
2026-04-21 16:34 6.46422 -30.92958 34915 ft 490 kts 32°
2026-04-21 16:35 6.52351 -30.89610 34917 ft 488 kts 32°
2026-04-21 16:35 6.58235 -30.86285 34914 ft 486 kts 32°
2026-04-21 16:36 6.64143 -30.82946 34916 ft 486 kts 32°
2026-04-21 16:36 6.70031 -30.79616 34918 ft 485 kts 32°
2026-04-21 16:37 6.75913 -30.76291 34918 ft 485 kts 32°
2026-04-21 16:37 6.81768 -30.72979 34923 ft 485 kts 32°
2026-04-21 16:38 6.87660 -30.69645 34914 ft 485 kts 32°
2026-04-21 16:38 6.93525 -30.66326 34916 ft 486 kts 32°
2026-04-21 16:39 6.99419 -30.62989 34918 ft 486 kts 32°
2026-04-21 16:39 7.05326 -30.59644 34916 ft 487 kts 32°
2026-04-21 16:40 7.11240 -30.56294 34916 ft 488 kts 32°
2026-04-21 16:40 7.17182 -30.52928 34915 ft 489 kts 32°
2026-04-21 16:41 7.23080 -30.49582 34913 ft 489 kts 32°
2026-04-21 16:41 7.29017 -30.46218 34916 ft 489 kts 32°
2026-04-21 16:42 7.34965 -30.42847 34908 ft 489 kts 32°
2026-04-21 16:42 7.40857 -30.39503 34914 ft 489 kts 32°
2026-04-21 16:43 7.46790 -30.36136 34914 ft 489 kts 32°
2026-04-21 16:43 7.52729 -30.32766 34918 ft 489 kts 32°
2026-04-21 16:44 7.58656 -30.29401 34916 ft 489 kts 31°
2026-04-21 16:44 7.64587 -30.26031 34917 ft 489 kts 31°
2026-04-21 16:45 7.70509 -30.22666 34912 ft 488 kts 31°
2026-04-21 16:45 7.76396 -30.19319 34913 ft 488 kts 31°
2026-04-21 16:46 7.82353 -30.15933 34913 ft 489 kts 31°
2026-04-21 16:46 7.88234 -30.12588 34908 ft 488 kts 31°
2026-04-21 16:47 7.94157 -30.09218 34913 ft 488 kts 31°
2026-04-21 16:47 8.00088 -30.05843 34915 ft 489 kts 31°
2026-04-21 16:48 8.05987 -30.02484 34911 ft 489 kts 31°
2026-04-21 16:48 8.11925 -29.99102 34909 ft 489 kts 31°
2026-04-21 16:49 8.17853 -29.95724 34908 ft 489 kts 31°
2026-04-21 16:49 8.23781 -29.92346 34919 ft 489 kts 31°
2026-04-21 16:50 8.29686 -29.88979 34912 ft 489 kts 31°
2026-04-21 16:50 8.35622 -29.85593 34909 ft 490 kts 31°
2026-04-21 16:51 8.41564 -29.82202 34915 ft 490 kts 31°
2026-04-21 16:51 8.47506 -29.78811 34913 ft 490 kts 31°
2026-04-21 16:52 8.53414 -29.75440 34913 ft 490 kts 31°
2026-04-21 16:52 8.59357 -29.72051 34913 ft 491 kts 31°
2026-04-21 16:53 8.65312 -29.68652 34910 ft 491 kts 31°
2026-04-21 16:53 8.71264 -29.65252 34915 ft 491 kts 31°
2026-04-21 16:54 8.77213 -29.61853 34915 ft 491 kts 31°
2026-04-21 16:54 8.83143 -29.58464 34916 ft 491 kts 31°
2026-04-21 16:55 8.89096 -29.55060 34910 ft 491 kts 31°
2026-04-21 16:55 8.95055 -29.51652 34910 ft 491 kts 31°
2026-04-21 16:56 9.01005 -29.48246 34914 ft 492 kts 31°
2026-04-21 16:56 9.06933 -29.44853 34919 ft 492 kts 31°
2026-04-21 16:57 9.12886 -29.41444 34913 ft 492 kts 30°
2026-04-21 16:57 9.18839 -29.38034 34915 ft 492 kts 30°
2026-04-21 16:58 9.24804 -29.34615 34915 ft 492 kts 30°
2026-04-21 16:58 9.30767 -29.31196 34910 ft 492 kts 30°
2026-04-21 16:59 9.36714 -29.27785 34912 ft 493 kts 30°
2026-04-21 16:59 9.42689 -29.24357 34914 ft 493 kts 30°
2026-04-21 17:00 9.48663 -29.20927 34916 ft 494 kts 30°
2026-04-21 17:00 9.53639 -29.18069 34916 ft 494 kts 30°
2026-04-21 17:01 9.60590 -29.14076 34917 ft 494 kts 30°
2026-04-21 17:01 9.66567 -29.10641 34926 ft 494 kts 30°
2026-04-21 17:02 9.72557 -29.07196 34919 ft 494 kts 30°
2026-04-21 17:02 9.78552 -29.03747 34921 ft 495 kts 30°
2026-04-21 17:03 9.84543 -29.00299 34918 ft 495 kts 30°
2026-04-21 17:03 9.90539 -28.96845 34920 ft 495 kts 30°
2026-04-21 17:04 9.96501 -28.93409 34912 ft 496 kts 29°
2026-04-21 17:04 10.02515 -28.89942 34916 ft 496 kts 29°
2026-04-21 17:05 10.08517 -28.86480 34915 ft 497 kts 29°
2026-04-21 17:05 10.14526 -28.83011 34913 ft 497 kts 29°
2026-04-21 17:06 10.20522 -28.79548 34919 ft 497 kts 29°
2026-04-21 17:06 10.26560 -28.76060 34916 ft 498 kts 29°
2026-04-21 17:07 10.31577 -28.73160 34915 ft 499 kts 29°
2026-04-21 17:07 10.38597 -28.69100 34917 ft 499 kts 29°
2026-04-21 17:08 10.44636 -28.65607 34920 ft 499 kts 29°
2026-04-21 17:08 10.50650 -28.62128 34915 ft 500 kts 29°
2026-04-21 17:09 10.59726 -28.56873 34921 ft 501 kts 29°
2026-04-21 17:09 10.65792 -28.53357 34920 ft 501 kts 29°
2026-04-21 17:10 10.71827 -28.49861 34922 ft 502 kts 29°
2026-04-21 17:10 10.77920 -28.46328 34921 ft 502 kts 29°
2026-04-21 17:11 10.83967 -28.42821 34919 ft 503 kts 29°
2026-04-21 17:11 10.90052 -28.39287 34920 ft 503 kts 29°
2026-04-21 17:12 10.95126 -28.36341 34918 ft 503 kts 29°
2026-04-21 17:12 11.02207 -28.32226 34916 ft 504 kts 29°
2026-04-21 17:13 11.07316 -28.29257 34922 ft 504 kts 29°
2026-04-21 17:13 11.13374 -28.25735 34920 ft 504 kts 29°
2026-04-21 17:14 11.19468 -28.22190 34924 ft 504 kts 29°
2026-04-21 17:14 11.25556 -28.18646 34921 ft 504 kts 29°
2026-04-21 17:15 11.31644 -28.15100 34920 ft 504 kts 29°
2026-04-21 17:15 11.37729 -28.11555 34922 ft 503 kts 29°
2026-04-21 17:16 11.43811 -28.08008 34925 ft 503 kts 29°
2026-04-21 17:16 11.49851 -28.04486 34923 ft 503 kts 29°
2026-04-21 17:17 11.55940 -28.00933 34927 ft 503 kts 29°
2026-04-21 17:17 11.62034 -27.97375 34924 ft 503 kts 29°
2026-04-21 17:18 11.68079 -27.93844 34927 ft 503 kts 29°
2026-04-21 17:18 11.74157 -27.90292 34923 ft 503 kts 28°
2026-04-21 17:19 11.80240 -27.86735 34923 ft 504 kts 28°
2026-04-21 17:19 11.86329 -27.83175 34926 ft 504 kts 28°
2026-04-21 17:20 11.92425 -27.79606 34920 ft 504 kts 28°
2026-04-21 17:20 11.98475 -27.76058 34918 ft 503 kts 29°
2026-04-21 17:21 12.04552 -27.72504 34950 ft 505 kts 29°
2026-04-21 17:21 12.10637 -27.68892 34928 ft 506 kts 28°
2026-04-21 17:22 12.16755 -27.65304 34930 ft 505 kts 28°
2026-04-21 17:22 12.22862 -27.61747 34919 ft 505 kts 28°
2026-04-21 17:23 12.28976 -27.58171 34925 ft 505 kts 28°
2026-04-21 17:23 12.35078 -27.54629 34926 ft 503 kts 28°
2026-04-21 17:24 12.41077 -27.51092 34951 ft 497 kts 28°
2026-04-21 17:24 12.47081 -27.47530 34925 ft 500 kts 28°
2026-04-21 17:25 12.53075 -27.43925 34927 ft 499 kts 28°
2026-04-21 17:25 12.59139 -27.40421 34953 ft 500 kts 27°
2026-04-21 17:26 12.65170 -27.36832 34932 ft 503 kts 28°
2026-04-21 17:26 12.71247 -27.33252 34935 ft 506 kts 28°
2026-04-21 17:27 12.77342 -27.29690 34928 ft 507 kts 28°
2026-04-21 17:27 12.83479 -27.26061 34930 ft 509 kts 28°
2026-04-21 17:28 12.89624 -27.22441 34931 ft 509 kts 28°
2026-04-21 17:28 12.95768 -27.18821 34925 ft 509 kts 28°
2026-04-21 17:29 13.01900 -27.15199 34924 ft 508 kts 28°
2026-04-21 17:29 13.08015 -27.11581 34932 ft 507 kts 28°
2026-04-21 17:30 13.14121 -27.07967 34931 ft 506 kts 28°
2026-04-21 17:30 13.20189 -27.04374 34933 ft 506 kts 28°
2026-04-21 17:31 13.26280 -27.00764 34933 ft 505 kts 27°
2026-04-21 17:31 13.32385 -26.97147 34935 ft 505 kts 27°
2026-04-21 17:32 13.38453 -26.93546 34932 ft 505 kts 27°
2026-04-21 17:32 13.44548 -26.89931 34934 ft 506 kts 27°
2026-04-21 17:33 13.50653 -26.86314 34933 ft 506 kts 27°
2026-04-21 17:33 13.56704 -26.82712 34936 ft 505 kts 27°
2026-04-21 17:34 13.62798 -26.79085 34938 ft 505 kts 27°
2026-04-21 17:34 13.68893 -26.75456 34936 ft 505 kts 27°
2026-04-21 17:35 13.74960 -26.71842 34932 ft 505 kts 27°
2026-04-21 17:35 13.81019 -26.68234 34936 ft 505 kts 27°
2026-04-21 17:36 13.87115 -26.64610 34936 ft 505 kts 27°
2026-04-21 17:36 13.93216 -26.60973 34945 ft 505 kts 27°
2026-04-21 17:37 13.99306 -26.57333 34939 ft 506 kts 27°
2026-04-21 17:37 14.05367 -26.53711 34938 ft 506 kts 27°
2026-04-21 17:38 14.11469 -26.50055 34940 ft 506 kts 27°
2026-04-21 17:38 14.17517 -26.46446 34945 ft 505 kts 27°
2026-04-21 17:39 14.23611 -26.42804 34933 ft 507 kts 27°
2026-04-21 17:39 14.29726 -26.39150 34940 ft 508 kts 29°
2026-04-21 17:40 14.35832 -26.35430 34934 ft 509 kts 26°
2026-04-21 17:40 14.42002 -26.31861 34953 ft 508 kts 27°
2026-04-21 17:41 14.48068 -26.28223 34949 ft 505 kts 26°
2026-04-21 17:41 14.54167 -26.24531 34970 ft 508 kts 27°
2026-04-21 17:42 14.60279 -26.20826 34942 ft 511 kts 28°
2026-04-21 17:42 14.66362 -26.17134 34929 ft 510 kts 27°
2026-04-21 17:43 14.72493 -26.13452 34942 ft 509 kts 27°
2026-04-21 17:43 14.78617 -26.09769 34945 ft 508 kts 27°
2026-04-21 17:44 14.84732 -26.06084 34945 ft 508 kts 27°
2026-04-21 17:44 14.90815 -26.02415 34947 ft 508 kts 27°
2026-04-21 17:45 14.96922 -25.98729 34947 ft 508 kts 27°
2026-04-21 17:45 15.03022 -25.95045 34946 ft 507 kts 27°
2026-04-21 17:46 15.09123 -25.91359 34948 ft 507 kts 26°
2026-04-21 17:46 15.15227 -25.87668 34946 ft 507 kts 26°
2026-04-21 17:47 15.21289 -25.84000 34947 ft 507 kts 26°
2026-04-21 17:47 15.27373 -25.80316 34952 ft 507 kts 26°
2026-04-21 17:48 15.33470 -25.76621 34951 ft 507 kts 26°
2026-04-21 17:48 15.39531 -25.72945 34944 ft 507 kts 26°
2026-04-21 17:49 15.45471 -25.68981 34925 ft 513 kts 41°
2026-04-21 17:49 15.47766 -25.66131 34960 ft 516 kts 56°
2026-04-21 17:49 15.49676 -25.62973 34963 ft 517 kts 57°
2026-04-21 17:50 15.53357 -25.56584 34959 ft 519 kts 58°
2026-04-21 17:50 15.57083 -25.50155 34943 ft 519 kts 57°
2026-04-21 17:51 15.60868 -25.43757 34948 ft 520 kts 57°
2026-04-21 17:51 15.64655 -25.37404 34951 ft 521 kts 57°
2026-04-21 17:52 15.68473 -25.30998 34958 ft 522 kts 57°
2026-04-21 17:52 15.72288 -25.24585 34951 ft 522 kts 57°
2026-04-21 17:53 15.76099 -25.18164 34945 ft 522 kts 57°
2026-04-21 17:53 15.79896 -25.11763 34958 ft 522 kts 57°
2026-04-21 17:54 15.83712 -25.05325 34953 ft 523 kts 57°
2026-04-21 17:54 15.87459 -24.98997 34944 ft 523 kts 57°
2026-04-21 17:55 15.91264 -24.92567 34951 ft 523 kts 57°
2026-04-21 17:55 15.93172 -24.89342 34744 ft 526 kts 57°
2026-04-21 17:55 15.95098 -24.86084 34277 ft 530 kts 57°
2026-04-21 17:56 15.97022 -24.82828 33810 ft 528 kts 57°
2026-04-21 17:56 15.98934 -24.79587 33309 ft 525 kts 56°
2026-04-21 17:56 16.00838 -24.76360 32814 ft 523 kts 56°
2026-04-21 17:56 16.02736 -24.73141 32336 ft 522 kts 56°
2026-04-21 17:57 16.04637 -24.69917 31857 ft 521 kts 56°
2026-04-21 17:57 16.06507 -24.66746 31389 ft 520 kts 56°
2026-04-21 17:57 16.08393 -24.63546 30940 ft 520 kts 55°
2026-04-21 17:57 16.10282 -24.60337 30482 ft 520 kts 55°
2026-04-21 17:58 16.12174 -24.57125 30028 ft 520 kts 55°
2026-04-21 17:58 16.14066 -24.53911 29355 ft 522 kts 55°
2026-04-21 17:58 16.15964 -24.50684 28566 ft 520 kts 55°
2026-04-21 17:58 16.17850 -24.47475 27826 ft 518 kts 55°
2026-04-21 17:59 16.19723 -24.44285 27095 ft 516 kts 54°
2026-04-21 17:59 16.21587 -24.41110 26383 ft 513 kts 54°
2026-04-21 17:59 16.23445 -24.37945 25686 ft 510 kts 54°
2026-04-21 17:59 16.25286 -24.34806 25007 ft 507 kts 54°
2026-04-21 18:00 16.26502 -24.32734 24573 ft 505 kts 54°
2026-04-21 18:00 16.28940 -24.28575 23703 ft 501 kts 54°
2026-04-21 18:00 16.30135 -24.26535 23224 ft 498 kts 54°
2026-04-21 18:00 16.31932 -24.23470 22445 ft 494 kts 54°
2026-04-21 18:01 16.33715 -24.20427 21716 ft 491 kts 55°
2026-04-21 18:01 16.35484 -24.17405 20990 ft 487 kts 55°
2026-04-21 18:01 16.37241 -24.14405 20287 ft 483 kts 56°
2026-04-21 18:01 16.38985 -24.11423 19593 ft 480 kts 56°
2026-04-21 18:02 16.40717 -24.08462 18925 ft 476 kts 57°
2026-04-21 18:02 16.42431 -24.05529 18266 ft 472 kts 57°
2026-04-21 18:02 16.44137 -24.02610 17490 ft 469 kts 57°
2026-04-21 18:02 16.45806 -23.99750 16751 ft 466 kts 57°
2026-04-21 18:03 16.47484 -23.96875 16121 ft 460 kts 57°
2026-04-21 18:03 16.49142 -23.94033 15517 ft 455 kts 57°
2026-04-21 18:03 16.50775 -23.91234 14929 ft 450 kts 58°
2026-04-21 18:03 16.52389 -23.88466 14345 ft 445 kts 58°
2026-04-21 18:04 16.53987 -23.85723 13784 ft 441 kts 58°
2026-04-21 18:04 16.55578 -23.82992 13155 ft 437 kts 58°
2026-04-21 18:04 16.57126 -23.80333 12541 ft 433 kts 58°
2026-04-21 18:04 16.58681 -23.77662 11928 ft 429 kts 58°
2026-04-21 18:05 16.60223 -23.75012 11343 ft 426 kts 58°
2026-04-21 18:05 16.61683 -23.72385 11129 ft 412 kts 65°
2026-04-21 18:05 16.62455 -23.69560 10925 ft 399 kts 84°
2026-04-21 18:05 16.62429 -23.66729 10736 ft 385 kts 98°
2026-04-21 18:06 16.62103 -23.64000 10545 ft 374 kts 100°
2026-04-21 18:06 16.61748 -23.61351 10351 ft 364 kts 100°
2026-04-21 18:06 16.61395 -23.58762 10159 ft 356 kts 100°
2026-04-21 18:06 16.61057 -23.56236 9960 ft 348 kts 100°
2026-04-21 18:07 16.60733 -23.53758 9722 ft 342 kts 100°
2026-04-21 18:07 16.60421 -23.51320 9469 ft 337 kts 100°
2026-04-21 18:07 16.60117 -23.48919 9206 ft 332 kts 99°
2026-04-21 18:07 16.59819 -23.46542 8902 ft 329 kts 99°
2026-04-21 18:08 16.59523 -23.44179 8536 ft 329 kts 99°
2026-04-21 18:08 16.59228 -23.41817 8176 ft 328 kts 99°
2026-04-21 18:08 16.58934 -23.39462 7818 ft 328 kts 99°
2026-04-21 18:08 16.58640 -23.37106 7461 ft 327 kts 99°
2026-04-21 18:09 16.58347 -23.34759 7102 ft 326 kts 98°
2026-04-21 18:09 16.58056 -23.32426 6817 ft 323 kts 98°
2026-04-21 18:09 16.57770 -23.30137 6540 ft 320 kts 98°
2026-04-21 18:09 16.57484 -23.27846 6253 ft 318 kts 98°
2026-04-21 18:10 16.57198 -23.25568 5909 ft 317 kts 98°
2026-04-21 18:10 16.56912 -23.23294 5564 ft 316 kts 98°
2026-04-21 18:10 16.56630 -23.21041 5324 ft 310 kts 98°
2026-04-21 18:10 16.56352 -23.18825 5077 ft 306 kts 97°
2026-04-21 18:11 16.56082 -23.16668 4829 ft 294 kts 98°
2026-04-21 18:11 16.55821 -23.14587 4570 ft 284 kts 97°
2026-04-21 18:11 16.55568 -23.12582 4309 ft 275 kts 96°
2026-04-21 18:11 16.55322 -23.10637 4052 ft 266 kts 96°
2026-04-21 18:12 16.55085 -23.08752 3810 ft 259 kts 95°
2026-04-21 18:12 16.54852 -23.06901 3590 ft 256 kts 95°
2026-04-21 18:12 16.54627 -23.05075 3396 ft 252 kts 92°
2026-04-21 18:12 16.54580 -23.03295 3214 ft 246 kts 86°
2026-04-21 18:13 16.54613 -23.01529 3024 ft 242 kts 85°
2026-04-21 18:13 16.54643 -22.99783 2816 ft 239 kts 85°
2026-04-21 18:13 16.54667 -22.98063 2620 ft 236 kts 85°
2026-04-21 18:13 16.55065 -22.96456 2425 ft 227 kts 57°
2026-04-21 18:14 16.57579 -22.94800 2083 ft 216 kts
2026-04-21 18:14 16.59052 -22.94742 2029 ft 208 kts
2026-04-21 18:14 16.60458 -22.94763 2012 ft 194 kts
2026-04-21 18:15 16.61758 -22.94785 2001 ft 179 kts
2026-04-21 18:15 16.62946 -22.94803 1968 ft 163 kts
2026-04-21 18:15 16.64051 -22.94818 1995 ft 159 kts
2026-04-21 18:15 16.65167 -22.94830 1726 ft 162 kts
2026-04-21 18:16 16.66285 -22.94842 1461 ft 153 kts
2026-04-21 18:16 16.67295 -22.94848 1227 ft 143 kts
2026-04-21 18:16 16.68291 -22.94857 1006 ft 144 kts
2026-04-21 18:16 16.69307 -22.94865 829 ft 146 kts
2026-04-21 18:17 16.70343 -22.94872 660 ft 152 kts
2026-04-21 18:17 16.71406 -22.94884 428 ft 152 kts
2026-04-21 18:17 16.72449 -22.94887 227 ft 147 kts
2026-04-21 18:17 16.73382 -22.94891 192 ft 110 kts 359°
2026-04-21 18:18 16.73924 -22.94896 188 ft 48 kts 359°
2026-04-21 18:18 16.74136 -22.94898 184 ft 26 kts 360°
2026-04-21 18:18 16.74237 -22.94848 190 ft 17 kts 57°
2026-04-21 18:18 16.74297 -22.94748 188 ft 16 kts 58°
2026-04-21 18:19 16.74291 -22.94704 183 ft 5 kts 151°
2026-04-21 18:19 16.74253 -22.94699 191 ft 7 kts 175°
2026-04-21 18:19 16.74181 -22.94699 185 ft 14 kts 180°
2026-04-21 18:19 16.74059 -22.94698 184 ft 20 kts 180°
2026-04-21 18:20 16.73922 -22.94697 204 ft 19 kts 180°
2026-04-21 18:20 16.73789 -22.94696 210 ft 19 kts 179°
2026-04-21 18:20 16.73667 -22.94696 207 ft 14 kts 180°
2026-04-21 18:20 16.73613 -22.94641 208 ft 11 kts 94°
2026-04-21 18:21 16.73558 -22.94597 204 ft 11 kts 177°
2026-04-21 18:21 16.73498 -22.94596 199 ft 7 kts 179°
2026-04-21 18:21 16.73449 -22.94596 209 ft 7 kts 179°
2026-04-21 18:21 16.73429 -22.94558 200 ft 7 kts 90°
2026-04-21 18:22 16.73430 -22.94510 200 ft 4 kts 90°
2026-04-21 18:22 16.73430 -22.94505 200 ft 0 kts 90°